DW1774 Weather Reports


time (UTC)temp
F
wind
direction
speed
knots
gust
knots
rain 1hr
in
rain 24hr
in
rain mn
in
humidity
%
barometer
mb
20200803152404 90 298 2.6 7.0 0.00 0.00 0.00 66 1016.6
20200803151904 89 296 1.7 7.0 0.00 0.00 0.00 65 1016.4
20200803151403 89 262 1.7 7.0 0.00 0.00 0.00 68 1016.4
20200803150904 89 327 1.7 7.0 0.00 0.00 0.00 69 1016.3
20200803150403 89 329 2.6 7.0 0.00 0.00 0.00 69 1016.4
20200803145904 88 252 1.7 7.8 0.00 0.00 0.00 69 1016.4
20200803145404 88 256 2.6 7.8 0.00 0.00 0.00 69 1016.5
20200803144903 88 13 3.5 7.8 0.00 0.00 0.00 70 1016.6
20200803144403 88 292 0.9 7.8 0.00 0.00 0.00 72 1016.7
20200803143903 87 251 0.9 7.8 0.00 0.00 0.00 72 1016.7
20200803143404 87 293 5.2 7.8 0.00 0.00 0.00 72 1016.8
20200803142903 87 14 2.6 7.8 0.00 0.00 0.00 72 1016.8
20200803142404 87 328 3.5 7.8 0.00 0.00 0.00 72 1016.8
20200803141904 86 299 1.7 6.1 0.00 0.00 0.00 73 1016.7
20200803141404 86 274 1.7 7.8 0.00 0.00 0.00 74 1016.7
20200803140904 85 276 1.7 7.8 0.00 0.00 0.00 76 1016.7
20200803140403 85 296 2.6 7.0 0.00 0.00 0.00 75 1016.7
20200803135903 85 303 2.6 7.0 0.00 0.00 0.00 77 1016.7
20200803135404 84 121 1.7 5.2 0.00 0.00 0.00 77 1016.8
20200803134904 84 281 1.7 5.2 0.00 0.00 0.00 78 1016.7
20200803134403 83 293 1.7 4.3 0.00 0.00 0.00 79 1016.5
20200803133903 83 275 0.9 2.6 0.00 0.00 0.00 80 1016.6
20200803133405 82 277 1.7 2.6 0.00 0.00 0.00 80 1016.6
20200803132905 81 329 1.7 2.6 0.00 0.00 0.00 80 1016.5
20200803132403 80 311 0.9 5.2 0.00 0.00 0.00 80 1016.5
20200803131904 80 254 0.9 5.2 0.00 0.00 0.00 78 1016.4
20200803131404 80 305 0.9 2.6 0.00 0.00 0.00 77 1016.4
20200803130904 79 285 0.9 1.7 0.00 0.00 0.00 76 1016.3
20200803130403 79 350 0.9 1.7 0.00 0.00 0.00 76 1016.2
20200803125904 78 353 0.9 1.7 0.00 0.00 0.00 76 1016.3
20200803125404 77 285 0.0 1.7 0.00 0.00 0.00 76 1016.3
20200803124904 77 285 0.0 1.7 0.00 0.00 0.00 76 1016.2
20200803124404 76 235 0.0 1.7 0.00 0.00 0.00 76 1016.1
20200803123904 75 222 0.0 0.0 0.00 0.00 0.00 77 1016.1
20200803123404 75 222 0.0 0.0 0.00 0.00 0.00 77 1016.2
20200803122904 75 222 0.0 0.0 0.00 0.00 0.00 77 1016.1
20200803122404 75 222 0.0 0.0 0.00 0.00 0.00 77 1016.0
20200803121904 74 222 0.0 0.0 0.00 0.00 0.00 77 1016.1
20200803121404 74 222 0.0 0.0 0.00 0.00 0.00 77 1016.1
20200803120904 74 222 0.0 0.0 0.00 0.00 0.00 78 1016.0
20200803120403 74 222 0.0 0.0 0.00 0.00 0.00 78 1016.0
20200803115903 74 222 0.0 0.0 0.00 0.00 0.00 78 1016.0
20200803115404 74 222 0.0 0.0 0.00 0.00 0.00 78 1016.0
20200803114904 74 222 0.0 0.0 0.00 0.00 0.00 78 1015.9
20200803114403 74 222 0.0 0.0 0.00 0.00 0.00 78 1015.8
20200803113904 74 222 0.0 0.0 0.00 0.00 0.00 78 1015.8
20200803112904 74 222 0.0 0.0 0.00 0.00 0.00 78 1015.9
20200803112403 74 222 0.0 0.0 0.00 0.00 0.00 78 1015.9
20200803111904 74 222 0.0 0.0 0.00 0.00 0.00 78 1015.8
20200803111404 74 222 0.0 0.0 0.00 0.00 0.00 78 1015.8
20200803110904 74 222 0.0 0.0 0.00 0.00 0.00 78 1015.7
20200803110404 75 222 0.0 0.0 0.00 0.00 0.00 78 1015.6
20200803105903 74 222 0.0 0.0 0.00 0.00 0.00 78 1015.6
20200803105404 74 222 0.0 0.0 0.00 0.00 0.00 78 1015.5
20200803104904 74 222 0.0 0.0 0.00 0.00 0.00 78 1015.5
20200803104403 74 222 0.0 0.0 0.00 0.00 0.00 78 1015.5
20200803103904 74 222 0.0 0.0 0.00 0.00 0.00 78 1015.5
20200803103404 75 222 0.0 0.0 0.00 0.00 0.00 79 1015.4
20200803102904 75 222 0.0 0.0 0.00 0.00 0.00 79 1015.4
20200803102404 75 222 0.0 0.0 0.00 0.00 0.00 79 1015.3
20200803101904 75 222 0.0 0.0 0.00 0.00 0.00 79 1015.3
20200803101404 75 222 0.0 0.0 0.00 0.00 0.00 79 1015.2
20200803100904 75 222 0.0 0.0 0.00 0.00 0.00 79 1015.2
20200803100403 75 222 0.0 0.0 0.00 0.00 0.00 79 1015.2
20200803095903 75 222 0.0 0.0 0.00 0.00 0.00 79 1015.1
20200803095404 75 222 0.0 0.0 0.00 0.00 0.00 79 1015.2
20200803094904 75 222 0.0 0.0 0.00 0.00 0.00 79 1015.2
20200803094403 75 222 0.0 0.0 0.00 0.00 0.00 79 1015.2
20200803093904 75 222 0.0 0.0 0.00 0.00 0.00 79 1015.2
20200803093404 75 222 0.0 0.0 0.00 0.00 0.00 79 1015.2
20200803092904 75 222 0.0 0.0 0.00 0.00 0.00 79 1015.2
20200803092404 75 222 0.0 0.0 0.00 0.00 0.00 79 1015.2
20200803091903 75 222 0.0 0.0 0.00 0.00 0.00 79 1015.1
20200803091404 75 222 0.0 0.0 0.00 0.00 0.00 79 1015.1
20200803090905 75 222 0.0 0.0 0.00 0.00 0.00 79 1015.2
20200803090404 75 222 0.0 0.0 0.00 0.00 0.00 79 1015.2
20200803085904 75 222 0.0 0.0 0.00 0.00 0.00 79 1015.1
20200803085404 75 222 0.0 0.0 0.00 0.00 0.00 79 1015.1
20200803084904 75 222 0.0 0.0 0.00 0.00 0.00 79 1015.1
20200803084403 75 222 0.0 0.0 0.00 0.00 0.00 80 1015.1
20200803083904 76 222 0.0 0.0 0.00 0.00 0.00 80 1015.1
20200803083404 76 222 0.0 0.0 0.00 0.00 0.00 80 1015.1
20200803082904 76 222 0.0 0.0 0.00 0.00 0.00 80 1015.1
20200803082403 76 222 0.0 0.0 0.00 0.00 0.00 80 1015.2
20200803081904 76 222 0.0 0.0 0.00 0.00 0.00 80 1015.2
20200803081404 76 222 0.0 0.0 0.00 0.00 0.00 80 1015.3
20200803080904 76 222 0.0 0.0 0.00 0.00 0.00 80 1015.3
20200803080404 76 222 0.0 0.0 0.00 0.00 0.00 80 1015.4
20200803075903 76 222 0.0 0.0 0.00 0.00 0.00 80 1015.4
20200803075404 76 222 0.0 0.0 0.00 0.00 0.00 80 1015.5
20200803074904 76 222 0.0 0.0 0.00 0.00 0.00 80 1015.4
20200803074404 76 222 0.0 0.0 0.00 0.00 0.00 80 1015.4
20200803073903 76 222 0.0 0.0 0.00 0.00 0.00 80 1015.4
20200803073404 76 222 0.0 0.0 0.00 0.00 0.00 80 1015.5
20200803072904 76 222 0.0 0.0 0.00 0.00 0.00 80 1015.5
20200803072404 76 222 0.0 0.0 0.00 0.00 0.00 80 1015.6
20200803071904 76 222 0.0 0.9 0.00 0.00 0.00 80 1015.5
20200803071404 76 222 0.0 0.9 0.00 0.00 0.00 80 1015.5
20200803070905 76 222 0.0 0.9 0.00 0.00 0.00 80 1015.4
20200803070404 76 222 0.0 0.0 0.00 0.00 0.00 80 1015.4
20200803065904 76 222 0.0 0.0 0.00 0.00 0.00 81 1015.5
20200803065404 76 222 0.0 0.0 0.00 0.00 0.00 80 1015.5
20200803064904 77 222 0.0 0.9 0.00 0.00 0.00 80 1015.5
20200803064405 77 222 0.0 0.9 0.00 0.00 0.00 80 1015.5
20200803063905 77 358 0.0 0.0 0.00 0.00 0.00 80 1015.5
20200803063403 77 222 0.0 0.0 0.00 0.00 0.00 80 1015.5
20200803062903 77 222 0.0 0.9 0.00 0.00 0.00 80 1015.4
20200803062404 77 222 0.0 0.9 0.00 0.00 0.00 80 1015.4
20200803061904 77 222 0.0 1.7 0.00 0.00 0.00 80 1015.4
20200803061403 77 222 0.0 1.7 0.00 0.00 0.00 80 1015.3
20200803060904 77 222 0.0 0.9 0.00 0.00 0.00 80 1015.4
20200803060403 77 222 0.0 0.9 0.00 0.00 0.00 80 1015.3
20200803055904 77 222 0.0 0.9 0.00 0.00 0.00 80 1015.3
20200803055404 77 222 0.0 0.9 0.00 0.00 0.00 80 1015.3
20200803054904 77 222 0.0 0.9 0.00 0.00 0.00 80 1015.3
20200803054404 77 222 0.0 0.0 0.00 0.00 0.00 80 1015.2
20200803053903 77 222 0.0 0.0 0.00 0.00 0.00 80 1015.2
20200803053404 77 222 0.0 0.0 0.00 0.00 0.00 80 1015.3
20200803052903 77 222 0.0 0.0 0.00 0.00 0.00 80 1015.3
20200803052404 78 222 0.0 0.0 0.00 0.00 0.00 80 1015.3
20200803051904 78 222 0.0 0.0 0.00 0.00 0.00 80 1015.2
20200803051404 78 222 0.0 0.0 0.00 0.00 0.00 80 1015.2
20200803050904 78 222 0.0 0.0 0.00 0.00 0.00 80 1015.2
20200803050404 78 222 0.0 0.9 0.00 0.00 0.00 80 1015.2
20200803045904 78 222 0.0 0.9 0.00 0.00 0.00 80 1015.2
20200803045404 78 222 0.0 0.9 0.00 0.00 0.00 80 1015.2
20200803044904 78 222 0.0 0.9 0.00 0.00 0.00 80 1015.2
20200803044404 78 222 0.0 0.9 0.00 0.00 0.00 80 1015.2
20200803043904 78 222 0.0 0.9 0.00 0.00 0.00 80 1015.1
20200803043403 78 222 0.0 1.7 0.00 0.00 0.00 80 1015.1
20200803042903 78 222 0.9 1.7 0.00 0.00 0.00 80 1015.1
20200803042404 78 222 0.0 1.7 0.00 0.00 0.00 80 1015.1
20200803041904 79 222 0.0 1.7 0.00 0.00 0.00 80 1015.1
20200803041404 79 222 0.0 0.9 0.00 0.00 0.00 80 1015.0
20200803040904 79 222 0.0 0.9 0.00 0.00 0.00 80 1014.9
20200803040403 79 222 0.0 1.7 0.00 0.00 0.00 79 1014.9
20200803035904 79 222 0.0 1.7 0.00 0.00 0.00 79 1014.9
20200803035403 79 222 0.0 1.7 0.00 0.00 0.00 79 1015.0
20200803034903 79 222 0.9 1.7 0.00 0.00 0.00 79 1014.9
20200803034403 79 222 0.9 1.7 0.00 0.00 0.00 79 1014.9
20200803033904 79 221 0.0 2.6 0.00 0.00 0.00 79 1014.8
20200803033404 79 215 0.9 2.6 0.00 0.00 0.00 79 1014.7
20200803032904 79 208 0.0 1.7 0.00 0.00 0.00 79 1014.6
20200803032404 79 208 0.0 1.7 0.00 0.00 0.00 79 1014.5
20200803031903 80 208 0.9 1.7 0.00 0.00 0.00 79 1014.5
20200803031403 80 204 0.0 1.7 0.00 0.00 0.00 79 1014.5
20200803030905 80 205 0.0 1.7 0.00 0.00 0.00 78 1014.5
20200803030404 80 205 0.0 2.6 0.00 0.00 0.00 78 1014.6
20200803025904 80 204 0.9 2.6 0.00 0.00 0.00 78 1014.6
20200803025404 80 203 0.9 2.6 0.00 0.00 0.00 78 1014.4
20200803024904 80 198 0.9 2.6 0.00 0.00 0.00 78 1014.3
20200803024404 80 200 0.9 2.6 0.00 0.00 0.00 77 1014.3
20200803023904 81 238 0.9 4.3 0.00 0.00 0.00 77 1014.3
20200803023404 81 220 1.7 4.3 0.00 0.00 0.00 77 1014.2
20200803022903 81 225 1.7 4.3 0.00 0.00 0.00 77 1014.3
20200803022403 81 231 1.7 4.3 0.00 0.00 0.00 77 1014.3
20200803021904 81 218 0.9 4.3 0.00 0.00 0.00 77 1014.3
20200803021404 81 212 0.9 2.6 0.00 0.00 0.00 76 1014.2
20200803020904 81 208 0.9 2.6 0.00 0.00 0.00 76 1014.3
20200803020404 81 217 0.9 2.6 0.00 0.00 0.00 75 1014.1
20200803015904 81 229 0.0 2.6 0.00 0.00 0.00 73 1014.1
20200803015405 81 250 0.9 1.7 0.00 0.00 0.00 72 1013.9
20200803014904 81 214 0.9 1.7 0.00 0.00 0.00 71 1013.9
20200803014403 82 214 0.9 1.7 0.00 0.00 0.00 71 1013.8
20200803013904 82 219 0.9 2.6 0.00 0.00 0.00 70 1013.8
20200803013404 82 220 0.9 2.6 0.00 0.00 0.00 69 1013.8
20200803012904 82 236 1.7 2.6 0.00 0.00 0.00 70 1013.9
20200803012404 83 255 0.9 2.6 0.00 0.00 0.00 69 1014.0
20200803011903 83 230 0.9 2.6 0.00 0.00 0.00 68 1013.8
20200803011403 84 216 0.9 2.6 0.00 0.00 0.00 67 1013.5
20200803010904 84 281 0.9 5.2 0.00 0.00 0.00 66 1013.4
20200803010404 85 297 0.9 5.2 0.00 0.00 0.00 65 1013.4
20200803005904 86 311 1.7 4.3 0.00 0.00 0.00 59 1013.3
20200803005404 87 214 0.9 1.7 0.00 0.00 0.00 58 1013.4
20200803004904 87 156 0.0 2.6 0.00 0.00 0.00 53 1013.4
20200803004403 87 156 0.9 2.6 0.00 0.00 0.00 52 1013.5
20200803003904 87 157 0.9 2.6 0.00 0.00 0.00 52 1013.4
20200803003404 87 154 0.9 2.6 0.00 0.00 0.00 52 1013.4
20200803002904 87 164 0.9 2.6 0.00 0.00 0.00 52 1013.5
20200803002404 87 164 1.7 2.6 0.00 0.00 0.00 51 1013.6
20200803001903 87 164 0.0 2.6 0.00 0.00 0.00 51 1013.7
20200803001404 87 166 0.9 2.6 0.00 0.00 0.00 52 1013.6
20200803000903 88 167 0.9 4.3 0.00 0.00 0.00 51 1013.4
20200803000403 88 152 1.7 4.3 0.00 0.00 0.00 52 1013.4
20200802235903 88 139 1.7 2.6 0.00 0.00 0.00 51 1013.3
20200802235403 88 158 1.7 2.6 0.00 0.00 0.00 51 1013.3
20200802234904 89 148 0.9 2.6 0.00 0.00 0.00 50 1013.4
20200802234404 89 154 1.7 2.6 0.00 0.00 0.00 50 1013.3
20200802233903 89 144 0.9 4.3 0.00 0.00 0.00 50 1013.3
20200802233404 89 143 0.9 4.3 0.00 0.00 0.00 50 1013.4
20200802232903 89 148 1.7 4.3 0.00 0.00 0.00 50 1013.5
20200802232404 89 178 1.7 2.6 0.00 0.00 0.00 49 1013.4
20200802231903 90 178 0.0 4.3 0.00 0.00 0.00 50 1013.4
20200802231403 90 171 0.9 4.3 0.00 0.00 0.00 49 1013.1
20200802230903 90 153 1.7 6.1 0.00 0.00 0.00 48 1012.8
20200802230404 90 140 2.6 6.1 0.00 0.00 0.00 46 1012.8
20200802225903 91 138 1.7 7.0 0.00 0.00 0.00 46 1012.8
20200802225403 91 137 1.7 7.0 0.00 0.00 0.00 45 1012.9
20200802224904 91 139 2.6 7.0 0.00 0.00 0.00 44 1013.0
20200802224404 92 150 4.3 7.0 0.00 0.00 0.00 44 1013.0
20200802223903 93 141 2.6 5.2 0.00 0.00 0.00 42 1013.2
20200802223404 93 154 0.9 4.3 0.00 0.00 0.00 43 1013.1
20200802222904 93 80 2.6 7.0 0.00 0.00 0.00 43 1013.4
20200802222404 93 158 0.9 10.4 0.00 0.00 0.00 42 1013.4
20200802221903 94 146 1.7 10.4 0.00 0.00 0.00 42 1013.4
20200802221403 94 150 3.5 10.4 0.00 0.00 0.00 44 1013.4
20200802220904 94 118 2.6 6.1 0.00 0.00 0.00 44 1013.4
20200802220403 94 102 1.7 6.1 0.00 0.00 0.00 43 1013.5
20200802215903 93 66 1.7 7.8 0.00 0.00 0.00 43 1013.5
20200802215403 94 93 3.5 7.8 0.00 0.00 0.00 43 1013.5
20200802214903 94 136 1.7 7.8 0.00 0.00 0.00 45 1013.4
20200802214404 93 142 2.6 7.8 0.00 0.00 0.00 47 1013.5
20200802213904 93 150 4.3 7.0 0.00 0.00 0.00 42 1013.6
20200802213403 93 100 2.6 7.8 0.00 0.00 0.00 44 1013.5
20200802212904 93 138 1.7 8.7 0.00 0.00 0.00 43 1013.6
20200802212403 93 114 2.6 8.7 0.00 0.00 0.00 45 1013.6
20200802211904 93 141 2.6 7.0 0.00 0.00 0.00 45 1013.7
20200802211404 93 140 2.6 7.0 0.00 0.00 0.00 46 1013.6
20200802210904 93 132 1.7 7.0 0.00 0.00 0.00 48 1013.6
20200802210404 93 150 2.6 8.7 0.00 0.00 0.00 49 1013.6
20200802205904 93 128 2.6 8.7 0.00 0.00 0.00 48 1013.7
20200802205404 93 147 4.3 8.7 0.00 0.00 0.00 48 1013.8
20200802204904 93 148 4.3 10.4 0.00 0.00 0.00 48 1013.7
20200802204404 93 146 5.2 10.4 0.00 0.00 0.00 48 1013.8
20200802203904 94 144 6.1 8.7 0.00 0.00 0.00 46 1013.9
20200802203403 94 142 4.3 7.8 0.00 0.00 0.00 46 1014.1
20200802202904 94 82 2.6 7.8 0.00 0.00 0.00 48 1014.1
20200802202404 93 125 2.6 7.8 0.00 0.00 0.00 48 1014.1
20200802201903 93 116 3.5 7.8 0.00 0.00 0.00 48 1014.3
20200802201404 93 89 1.7 7.0 0.00 0.00 0.00 50 1014.4
20200802200904 93 118 3.5 7.8 0.00 0.00 0.00 50 1014.4
20200802200403 93 245 2.6 7.8 0.00 0.00 0.00 51 1014.5
20200802195903 93 138 2.6 7.8 0.00 0.00 0.00 50 1014.5
20200802195404 93 229 0.9 7.8 0.00 0.00 0.00 52 1014.6
20200802194904 94 104 2.6 7.8 0.00 0.00 0.00 51 1014.7
20200802194403 94 178 4.3 7.8 0.00 0.00 0.00 53 1014.8
20200802193903 94 126 2.6 7.0 0.00 0.00 0.00 54 1014.8
20200802193404 93 32 2.6 10.4 0.00 0.00 0.00 54 1014.8
20200802192904 93 109 1.7 10.4 0.00 0.00 0.00 54 1014.9
20200802192404 93 9 2.6 7.8 0.00 0.00 0.00 55 1014.9
20200802191904 93 143 5.2 7.8 0.00 0.00 0.00 55 1014.9
20200802191404 93 113 2.6 7.0 0.00 0.00 0.00 56 1014.9
20200802190904 93 135 2.6 7.0 0.00 0.00 0.00 55 1014.9
20200802190403 93 39 2.6 7.8 0.00 0.00 0.00 57 1014.9
20200802185904 92 180 1.7 7.8 0.00 0.00 0.00 57 1014.9
20200802185404 92 112 1.7 8.7 0.00 0.00 0.00 55 1015.0
20200802184904 92 145 5.2 8.7 0.00 0.00 0.00 57 1015.0
20200802184403 92 148 4.3 8.7 0.00 0.00 0.00 56 1015.1
20200802183904 92 110 2.6 7.8 0.00 0.00 0.00 56 1015.1
20200802183404 93 135 2.6 8.7 0.00 0.00 0.00 57 1015.1
20200802182904 93 103 2.6 8.7 0.00 0.00 0.00 55 1015.2
20200802182404 93 129 2.6 7.8 0.00 0.00 0.00 55 1015.2
20200802181903 93 104 2.6 7.8 0.00 0.00 0.00 55 1015.3
20200802181404 93 63 1.7 7.0 0.00 0.00 0.00 55 1015.3
20200802180904 92 344 0.9 2.6 0.00 0.00 0.00 54 1015.3
20200802180404 92 73 1.7 4.3 0.00 0.00 0.00 53 1015.4
20200802175904 92 345 1.7 5.2 0.00 0.00 0.00 55 1015.5
20200802175404 91 9 2.6 6.1 0.00 0.00 0.00 59 1015.6
20200802174904 91 156 1.7 6.1 0.00 0.00 0.00 54 1015.6
20200802174404 91 176 1.7 4.3 0.00 0.00 0.00 55 1015.7
20200802173904 91 74 1.7 4.3 0.00 0.00 0.00 57 1015.7
20200802173404 92 142 0.9 4.3 0.00 0.00 0.00 52 1015.8
20200802172904 92 12 2.6 4.3 0.00 0.00 0.00 59 1015.8
20200802172403 91 21 1.7 4.3 0.00 0.00 0.00 58 1015.8
20200802171904 91 153 1.7 2.6 0.00 0.00 0.00 55 1015.9
20200802171404 90 71 1.7 4.3 0.00 0.00 0.00 58 1015.9
20200802170903 90 37 1.7 4.3 0.00 0.00 0.00 59 1016.0
20200802170403 90 338 0.9 4.3 0.00 0.00 0.00 58 1016.0
20200802165904 90 289 0.9 2.6 0.00 0.01 0.00 57 1016.1
20200802165403 91 339 0.0 2.6 0.00 0.01 0.00 55 1016.2
20200802164904 92 336 1.7 2.6 0.00 0.01 0.00 57 1016.2
20200802164404 92 305 1.7 2.6 0.00 0.01 0.00 56 1016.2
20200802163903 92 285 0.9 2.6 0.00 0.01 0.00 57 1016.3
20200802163404 92 351 1.7 2.6 0.00 0.01 0.00 56 1016.3
20200802162904 91 40 1.7 4.3 0.00 0.01 0.00 56 1016.4
20200802162403 91 65 1.7 4.3 0.00 0.02 0.00 59 1016.4
20200802161904 91 24 1.7 4.3 0.00 0.02 0.00 58 1016.5
20200802161404 90 279 1.7 4.3 0.00 0.02 0.00 60 1016.5
20200802160903 90 338 1.7 4.3 0.00 0.03 0.00 60 1016.5
20200802160403 90 35 1.7 4.3 0.00 0.03 0.00 57 1016.5
20200802155903 90 311 0.9 4.3 0.00 0.04 0.00 60 1016.6
20200802155404 90 40 1.7 5.2 0.00 0.06 0.00 59 1016.6
20200802154904 90 341 2.6 5.2 0.00 0.07 0.00 59 1016.6
20200802154404 90 244 0.9 6.1 0.00 0.08 0.00 60 1016.6
20200802153903 90 288 2.6 6.1 0.00 0.10 0.00 58 1016.6
20200802153404 89 24 2.6 4.3 0.00 0.11 0.00 65 1016.6
20200802152904 89 26 1.7 4.3 0.00 0.13 0.00 64 1016.6